| time (UTC) | temp F | wind direction | speed MPH | gust MPH | rain 1hr in | rain 24hr in | rain mn in | humidity % | barometer mb |
| 20260509051558 | 61 | 17 | 5.0 | 10.0 | 0.00 | 0.00 | 0.00 | 32 | 1010.7 |
| 20260509050134 | 63 | 360 | 3.0 | 10.0 | 0.00 | 0.00 | 0.00 | 29 | 1010.6 |
| 20260509044602 | 64 | 315 | 3.0 | 11.0 | 0.00 | 0.00 | 0.00 | 27 | 1010.6 |
| 20260509043054 | 63 | 274 | 6.0 | 18.0 | 0.00 | 0.00 | 0.00 | 27 | 1010.2 |
| 20260509041554 | 61 | 265 | 7.0 | 12.0 | 0.00 | 0.00 | 0.00 | 29 | 1010.0 |
| 20260509040058 | 62 | 315 | 4.0 | 9.0 | 0.00 | 0.00 | 0.00 | 29 | 1009.8 |
| 20260509034552 | 63 | 292 | 4.0 | 8.0 | 0.00 | 0.00 | 0.00 | 27 | 1009.5 |
| 20260509033057 | 63 | 319 | 3.0 | 7.0 | 0.00 | 0.00 | 0.00 | 27 | 1009.4 |
| 20260509031556 | 63 | 311 | 2.0 | 8.0 | 0.00 | 0.00 | 0.00 | 27 | 1009.0 |
| 20260509030054 | 65 | 5 | 2.0 | 8.0 | 0.00 | 0.00 | 0.00 | 25 | 1008.8 |
| 20260509024553 | 66 | 30 | 3.0 | 9.0 | 0.00 | 0.00 | 0.00 | 25 | 1008.5 |
| 20260509023102 | 67 | 35 | 4.0 | 12.0 | 0.00 | 0.00 | 0.00 | 24 | 1008.2 |
| 20260509021554 | 68 | 360 | 7.0 | 15.0 | 0.00 | 0.00 | 0.00 | 23 | 1008.0 |
| 20260509020057 | 69 | 5 | 8.0 | 15.0 | 0.00 | 0.00 | 0.00 | 23 | 1007.9 |
| 20260509014554 | 69 | 351 | 8.0 | 18.0 | 0.00 | 0.00 | 0.00 | 23 | 1007.8 |
| 20260509013100 | 70 | 92 | 7.0 | 17.0 | 0.00 | 0.00 | 0.00 | 22 | 1007.8 |
| 20260509011601 | 71 | 355 | 9.0 | 19.0 | 0.00 | 0.00 | 0.00 | 22 | 1007.9 |
| 20260509010054 | 71 | 13 | 10.0 | 23.0 | 0.00 | 0.00 | 0.00 | 22 | 1007.8 |
| 20260509004553 | 72 | 319 | 11.0 | 21.0 | 0.00 | 0.00 | 0.00 | 19 | 1007.7 |
| 20260509003104 | 72 | 297 | 14.0 | 25.0 | 0.00 | 0.00 | 0.00 | 20 | 1007.7 |
| 20260509001553 | 72 | 311 | 13.0 | 25.0 | 0.00 | 0.00 | 0.00 | 19 | 1007.7 |
| 20260509000103 | 72 | 320 | 15.0 | 26.0 | 0.00 | 0.00 | 0.00 | 19 | 1007.7 |
| 20260508234558 | 73 | 334 | 15.0 | 24.0 | 0.00 | 0.00 | 0.00 | 18 | 1007.6 |
| 20260508233054 | 73 | 278 | 16.0 | 27.0 | 0.00 | 0.00 | 0.00 | 18 | 1007.6 |
| 20260508231554 | 73 | 301 | 19.0 | 31.0 | 0.00 | 0.00 | 0.00 | 17 | 1007.6 |
| 20260508230105 | 73 | 325 | 14.0 | 28.0 | 0.00 | 0.00 | 0.00 | 17 | 1007.7 |
| 20260508224555 | 73 | 313 | 16.0 | 27.0 | 0.00 | 0.00 | 0.00 | 17 | 1007.7 |
| 20260508223143 | 74 | 304 | 19.0 | 29.0 | 0.00 | 0.00 | 0.00 | 18 | 1007.7 |
| 20260508221554 | 73 | 293 | 15.0 | 30.0 | 0.00 | 0.00 | 0.00 | 19 | 1007.8 |
| 20260508220055 | 74 | 311 | 16.0 | 31.0 | 0.00 | 0.00 | 0.00 | 19 | 1007.8 |
| 20260508214601 | 73 | 308 | 16.0 | 33.0 | 0.00 | 0.00 | 0.00 | 19 | 1007.8 |
| 20260508213054 | 74 | 313 | 16.0 | 28.0 | 0.00 | 0.00 | 0.00 | 17 | 1007.8 |
| 20260508211557 | 74 | 321 | 11.0 | 31.0 | 0.00 | 0.00 | 0.00 | 18 | 1007.9 |
| 20260508210055 | 74 | 288 | 17.0 | 31.0 | 0.00 | 0.00 | 0.00 | 17 | 1007.9 |
| 20260508204603 | 73 | 309 | 18.0 | 30.0 | 0.00 | 0.00 | 0.00 | 18 | 1008.0 |
| 20260508203054 | 74 | 321 | 15.0 | 32.0 | 0.00 | 0.00 | 0.00 | 17 | 1008.0 |
| 20260508201556 | 74 | 269 | 16.0 | 27.0 | 0.00 | 0.00 | 0.00 | 19 | 1008.0 |
| 20260508200055 | 74 | 276 | 13.0 | 24.0 | 0.00 | 0.00 | 0.00 | 18 | 1008.1 |
| 20260508194623 | 73 | 271 | 13.0 | 20.0 | 0.00 | 0.00 | 0.00 | 19 | 1008.0 |
| 20260508193056 | 72 | 254 | 8.0 | 18.0 | 0.00 | 0.00 | 0.00 | 24 | 1008.5 |
| 20260508191553 | 72 | 246 | 12.0 | 21.0 | 0.00 | 0.00 | 0.00 | 24 | 1008.7 |
| 20260508190051 | 71 | 298 | 13.0 | 22.0 | 0.00 | 0.00 | 0.00 | 24 | 1009.0 |
| 20260508184554 | 70 | 309 | 11.0 | 19.0 | 0.00 | 0.00 | 0.00 | 26 | 1009.2 |
| 20260508183055 | 70 | 232 | 8.0 | 16.0 | 0.00 | 0.00 | 0.00 | 30 | 1009.5 |
| 20260508181621 | 69 | 234 | 8.0 | 17.0 | 0.00 | 0.00 | 0.00 | 31 | 1009.7 |
| 20260508174551 | 68 | 274 | 7.0 | 16.0 | 0.00 | 0.00 | 0.00 | 33 | 1009.8 |
| 20260508173051 | 67 | 236 | 4.0 | 13.0 | 0.00 | 0.00 | 0.00 | 36 | 1010.0 |
| 20260508171554 | 67 | 242 | 9.0 | 14.0 | 0.00 | 0.00 | 0.00 | 37 | 1010.1 |
| 20260508170052 | 66 | 259 | 7.0 | 15.0 | 0.00 | 0.00 | 0.00 | 42 | 1010.4 |
| 20260508164551 | 64 | 240 | 5.0 | 13.0 | 0.00 | 0.00 | 0.00 | 45 | 1010.5 |
| 20260508163051 | 63 | 294 | 6.0 | 15.0 | 0.00 | 0.00 | 0.00 | 48 | 1010.6 |
| 20260508161603 | 61 | 235 | 6.0 | 10.0 | 0.00 | 0.00 | 0.00 | 52 | 1010.9 |
| 20260508160056 | 61 | 247 | 5.0 | 9.0 | 0.00 | 0.00 | 0.00 | 53 | 1011.1 |
| 20260508154558 | 59 | 197 | 4.0 | 8.0 | 0.00 | 0.00 | 0.00 | 57 | 1011.2 |
| 20260508153056 | 57 | 259 | 3.0 | 9.0 | 0.00 | 0.00 | 0.00 | 61 | 1011.4 |
| 20260508151605 | 55 | 169 | 3.0 | 9.0 | 0.00 | 0.00 | 0.00 | 65 | 1011.4 |
| 20260508150052 | 55 | 202 | 4.0 | 7.0 | 0.00 | 0.00 | 0.00 | 65 | 1011.5 |
| 20260508144555 | 53 | 184 | 3.0 | 6.0 | 0.00 | 0.00 | 0.00 | 68 | 1011.6 |
| 20260508143054 | 51 | 198 | 5.0 | 7.0 | 0.00 | 0.00 | 0.00 | 71 | 1011.7 |
| 20260508141553 | 50 | 203 | 4.0 | 8.0 | 0.00 | 0.00 | 0.00 | 72 | 1011.7 |
| 20260508140054 | 49 | 202 | 4.0 | 8.0 | 0.00 | 0.00 | 0.00 | 74 | 1011.9 |
| 20260508134557 | 47 | 218 | 4.0 | 7.0 | 0.00 | 0.00 | 0.00 | 75 | 1011.9 |
| 20260508133104 | 45 | 183 | 2.0 | 4.0 | 0.00 | 0.00 | 0.00 | 77 | 1011.8 |
| 20260508131553 | 43 | 17 | 2.0 | 3.0 | 0.00 | 0.00 | 0.00 | 77 | 1011.8 |
| 20260508130054 | 42 | 17 | 1.0 | 4.0 | 0.00 | 0.00 | 0.00 | 74 | 1011.7 |
| 20260508124557 | 41 | 17 | 1.0 | 2.0 | 0.00 | 0.00 | 0.00 | 69 | 1011.8 |
| 20260508123057 | 40 | 0 | 0.0 | 2.0 | 0.00 | 0.00 | 0.00 | 72 | 1011.7 |
| 20260508121559 | 40 | 17 | 0.0 | 1.0 | 0.00 | 0.00 | 0.00 | 70 | 1011.7 |
| 20260508114556 | 40 | 17 | 1.0 | 2.0 | 0.00 | 0.00 | 0.00 | 66 | 1011.9 |
| 20260508113114 | 42 | 17 | 1.0 | 3.0 | 0.00 | 0.00 | 0.00 | 64 | 1011.8 |
| 20260508111606 | 44 | 17 | 2.0 | 3.0 | 0.00 | 0.00 | 0.00 | 65 | 1011.8 |
| 20260508110103 | 45 | 17 | 2.0 | 5.0 | 0.00 | 0.00 | 0.00 | 64 | 1011.8 |
| 20260508104557 | 45 | 17 | 2.0 | 5.0 | 0.00 | 0.00 | 0.00 | 63 | 1011.9 |
| 20260508103058 | 45 | 17 | 3.0 | 5.0 | 0.00 | 0.00 | 0.00 | 64 | 1012.0 |
| 20260508101609 | 45 | 17 | 2.0 | 5.0 | 0.00 | 0.00 | 0.00 | 63 | 1012.0 |
| 20260508100058 | 44 | 30 | 4.0 | 6.0 | 0.00 | 0.00 | 0.00 | 62 | 1012.2 |
| 20260508094603 | 44 | 26 | 4.0 | 8.0 | 0.00 | 0.00 | 0.00 | 62 | 1012.0 |
| 20260508093055 | 46 | 11 | 4.0 | 8.0 | 0.00 | 0.00 | 0.00 | 64 | 1012.0 |
| 20260508091551 | 47 | 313 | 2.0 | 6.0 | 0.00 | 0.00 | 0.00 | 60 | 1012.1 |
| 20260508090055 | 48 | 332 | 7.0 | 12.0 | 0.00 | 0.00 | 0.00 | 61 | 1012.0 |
| 20260508084553 | 47 | 338 | 0.0 | 4.0 | 0.00 | 0.00 | 0.00 | 58 | 1012.1 |
| 20260508083100 | 47 | 338 | 1.0 | 3.0 | 0.00 | 0.00 | 0.00 | 58 | 1012.0 |
| 20260508081608 | 48 | 0 | 1.0 | 6.0 | 0.00 | 0.00 | 0.00 | 58 | 1011.9 |
| 20260508080054 | 50 | 0 | 1.0 | 9.0 | 0.00 | 0.00 | 0.00 | 57 | 1011.9 |
| 20260508074554 | 50 | 360 | 2.0 | 6.0 | 0.00 | 0.00 | 0.00 | 57 | 1012.0 |
| 20260508073057 | 50 | 336 | 4.0 | 10.0 | 0.00 | 0.00 | 0.00 | 58 | 1011.9 |
| 20260508071558 | 52 | 314 | 6.0 | 12.0 | 0.00 | 0.00 | 0.00 | 56 | 1012.0 |
| 20260508070106 | 50 | 298 | 3.0 | 9.0 | 0.00 | 0.00 | 0.00 | 58 | 1011.8 |
| 20260508064554 | 48 | 332 | 4.0 | 10.0 | 0.00 | 0.00 | 0.00 | 60 | 1012.0 |
| 20260508063102 | 49 | 347 | 4.0 | 7.0 | 0.00 | 0.00 | 0.00 | 59 | 1011.8 |
| 20260508061557 | 50 | 257 | 1.0 | 3.0 | 0.00 | 0.00 | 0.00 | 61 | 1011.8 |
| 20260508060106 | 51 | 0 | 1.0 | 3.0 | 0.00 | 0.00 | 0.00 | 60 | 1011.7 |
| 20260508054600 | 52 | 257 | 0.0 | 2.0 | 0.00 | 0.00 | 0.00 | 60 | 1011.7 |
| 20260508053058 | 52 | 0 | 0.0 | 1.0 | 0.00 | 0.00 | 0.00 | 60 | 1011.8 |